Location: Zagreb
(45.8000°N, 16.0000°E)
Time: 20:37:28
(UTC+01:00)

deb Explorer IX - Pass Details

Date: 02 October 2020
Orbit: 537 x 1106 km, 38.8° (Epoch: 30 October)

Event Time Altitude Azimuth Distance (km) Brightness Sun altitude
Rises 20:53:27 0° 265° (W) 2,906 ? -24.8°
Reaches altitude 10° 20:56:19 10° 249° (WSW) 1,918 ? -25.2°
Enters shadow 20:58:54 20° 214° (SW) 1,345 ? -25.7°
Maximum altitude 20:59:33 20° 201° (SSW) 1,307 - -25.8°
Drops below altitude 10° 21:02:36 10° 152° (SSE) 1,801 - -26.3°
Sets 21:05:12 0° 135° (SE) 2,672 - -26.7°
